[[{"header":{"parameterUnit":"m.s-1","parameterCategory":1,"la1":30.2991,"la2":30.254,"lo1":-89.0895,"lo2":-89.0444,"dy":0.0017,"dx":0.0017,"nx":28,"ny":28,"refTime":"2023-08-30T03:00:00:Z","depth":0,"parameterNumber":2,"parameterNumberName":"U-component_of_WINDS"},"data":[0,0,0,0,0,0,0,0,0,0,0,0,0,0,0,0,0,0,0,0,0,0,0,0,0,0,0,0,0,0,0,0,0,0,0,0,0,0,0,0,0,0,0,0,0,0,0,0,0,0,0,0,0,0,0,0,0,0,-0.083,-0.083,0,-0.0839,-0.084,-0.084,-0.0807,-0.0806,-0.0804,-0.0804,-0.0821,-0.0822,-0.0823,0,0,0,0,0,0,0,0,0,0,0,0,0,-0.0788,-0.0788,-0.083,-0.083,-0.083,-0.0839,-0.084,-0.084,-0.0807,-0.0805,-0.0804,-0.0803,-0.082,-0.0822,-0.0823,0,0,0,0,0,0,0,0,0,0,0,0,0,-0.0803,-0.0789,-0.083,-0.0814,-0.0813,-0.0839,-0.084,-0.084,-0.0807,-0.0805,-0.0804,-0.0802,-0.082,-0.0822,-0.0824,-0.0867,0,0,-0.083,-0.0831,0,0,0,0,0,0,0,0,-0.0802,-0.0804,-0.0816,-0.0815,-0.0814,-0.082,-0.0831,-0.0849,-0.0807,-0.081,-0.0803,-0.0802,-0.0822,-0.0824,-0.0829,-0.0868,-0.0869,-0.083,-0.0832,-0.0832,-0.0833,0,0,0,0,0,0,0,-0.0801,-0.0804,-0.0834,-0.0817,-0.0815,-0.0809,-0.0809,-0.0834,-0.0825,-0.0809,-0.0807,-0.0808,-0.0821,-0.0827,-0.0829,-0.0869,-0.083,-0.0832,-0.0833,-0.0834,-0.0944,-0.0946,0,0,0,0,0,0,-0.0801,-0.0803,-0.0833,-0.0834,-0.0804,-0.0811,-0.0811,-0.082,-0.0824,-0.0823,-0.0809,-0.0806,-0.0825,-0.0827,-0.083,-0.0882,-0.0832,-0.0834,-0.0836,-0.0942,-0.0944,-0.0946,0,0,0,0,0,0,-0.08,-0.0804,-0.0833,-0.0818,-0.0821,-0.0813,-0.0823,-0.0821,-0.0827,-0.0824,-0.0823,-0.0817,-0.0823,-0.0827,-0.0858,-0.0882,-0.0835,-0.0837,-0.0941,-0.0943,-0.0945,-0.0985,0,0,0,0,0,0,-0.0799,-0.0804,-0.0819,-0.0818,-0.0822,-0.0859,-0.0824,-0.0822,-0.083,-0.0826,-0.0831,-0.083,-0.0822,-0.0855,-0.086,-0.0884,-0.0839,-0.0938,-0.0942,-0.0945,-0.0982,-0.0989,-0.0995,0,0,0,0,0,-0.0798,-0.0832,-0.082,-0.0824,-0.0841,-0.086,-0.0863,-0.0851,-0.0832,-0.0848,-0.0846,-0.083,-0.0878,-0.0858,-0.0864,-0.0889,-0.0937,-0.0941,-0.0944,-0.0979,-0.0987,-0.0994,0,0,0,0,0,0,-0.0838,-0.0831,-0.0819,-0.0853,-0.0857,-0.0855,-0.0875,-0.086,-0.0872,-0.0869,-0.0855,-0.0857,-0.089,-0.0892,-0.0871,-0.0931,-0.0904,-0.0909,-0.0929,-0.0937,-0.0943,-0.0943,-0.0841,0,0,0,0,0,-0.0851,-0.0865,-0.0859,-0.089,-0.0893,-0.0883,-0.0892,-0.0882,-0.0887,-0.0889,-0.089,-0.0897,-0.0913,-0.0925,-0.094,-0.0981,-0.0982,-0.1001,-0.1007,-0.1012,-0.1018,-0.104,-0.1048,-0.0958,-0.0958,-0.0958,0,0,-0.0878,-0.0876,-0.0886,-0.0898,-0.09,-0.0918,-0.0885,-0.0906,-0.0919,-0.0893,-0.0922,-0.0922,-0.0929,-0.0965,-0.0981,-0.0968,-0.1042,-0.1017,-0.1021,-0.1024,-0.1045,-0.1053,-0.1061,-0.0961,-0.0961,-0.096,0,0,-0.0936,-0.0935,-0.0961,-0.0963,-0.0965,-0.0959,-0.0965,-0.0964,-0.0963,-0.099,-0.0971,-0.0988,-0.1016,-0.1022,-0.1029,-0.1087,-0.1074,-0.1093,-0.1127,-0.1149,-0.1156,-0.1163,-0.1185,-0.1192,-0.1097,-0.1097,-0.1098,0,-0.097,-0.0993,-0.0976,-0.0997,-0.1003,-0.0977,-0.1004,-0.1008,-0.1017,-0.1022,-0.1006,-0.1041,-0.1044,-0.1081,-0.1095,-0.1101,-0.1109,-0.1093,-0.1156,-0.1162,-0.1168,-0.1189,-0.1197,-0.11,-0.11,-0.1099,-0.1099,0,-0.1035,-0.1052,-0.1072,-0.1079,-0.1087,-0.1111,-0.1099,-0.111,-0.1098,-0.1094,-0.1123,-0.1125,-0.114,-0.1148,-0.1138,-0.1184,-0.1175,-0.1158,-0.1131,-0.1179,-0.1199,-0.1206,-0.1103,-0.1102,-0.1102,-0.1101,0,0,-0.1122,-0.1116,-0.1124,-0.1127,-0.1127,-0.114,-0.1163,-0.1175,-0.1185,-0.1191,-0.1211,-0.1235,-0.1218,-0.1226,-0.1217,-0.1236,-0.1282,-0.1216,-0.1216,-0.123,-0.1334,-0.1348,-0.1357,-0.1272,-0.1274,-0.1275,-0.1334,0,-0.118,-0.1216,-0.1201,-0.124,-0.1256,-0.1231,-0.1251,-0.1254,-0.125,-0.1264,-0.126,-0.1277,-0.1253,-0.1258,-0.1275,-0.1273,-0.1304,-0.1268,-0.1293,-0.1294,-0.1294,-0.1367,-0.1383,-0.1438,-0.1341,-0.1342,-0.1343,0,-0.1253,-0.1259,-0.1299,-0.1296,-0.1302,-0.132,-0.133,-0.1342,-0.1346,-0.1342,-0.1349,-0.1335,-0.1359,-0.133,-0.1363,-0.134,-0.1348,-0.1349,-0.1351,-0.1354,-0.1323,-0.1375,-0.1456,-0.1465,-0.1355,-0.1354,-0.1353,0,-0.1314,-0.1333,-0.1359,-0.1361,-0.1358,-0.1371,-0.1371,-0.1372,-0.138,-0.1389,-0.1394,-0.1406,-0.1413,-0.1424,-0.1414,-0.1394,-0.1449,-0.142,-0.1448,-0.1449,-0.1463,-0.1463,-0.1549,-0.1466,-0.1466,-0.1466,-0.1465,0,-0.1381,-0.1407,-0.1386,-0.1402,-0.1431,-0.1413,-0.1442,-0.1439,-0.144,-0.1457,-0.1436,-0.1452,-0.1437,-0.1453,-0.1445,-0.1475,-0.1478,-0.1476,-0.1475,-0.1479,-0.148,-0.1487,-0.1484,-0.1468,-0.1467,-0.1467,-0.1466,0,-0.1455,-0.1441,-0.1469,-0.1462,-0.1461,-0.1482,-0.1477,-0.1493,-0.1486,-0.1507,-0.1511,-0.1502,-0.1519,-0.1509,-0.1527,-0.1522,-0.1561,-0.1553,-0.1559,-0.1558,-0.1587,-0.1585,-0.1682,-0.1694,-0.1602,-0.1603,-0.1603,0,-0.15,-0.1519,-0.1513,-0.1521,-0.1522,-0.1536,-0.1543,-0.1526,-0.1534,-0.1538,-0.1554,-0.1569,-0.158,-0.1608,-0.1604,-0.1618,-0.1611,-0.1644,-0.1614,-0.1618,-0.1614,-0.1613,-0.1616,-0.1651,-0.1652,-0.1653,-0.1654,0,-0.1582,-0.1573,-0.1583,-0.1591,-0.1599,-0.1605,-0.161,-0.1618,-0.1601,-0.1612,-0.1627,-0.1636,-0.1652,-0.1668,-0.1679,-0.1681,-0.1666,-0.1663,-0.1671,-0.1677,-0.168,-0.168,-0.1578,-0.1662,-0.1661,-0.166,-0.166,-0.166,-0.1643,-0.1659,-0.1657,-0.1669,-0.1669,-0.1673,-0.1688,-0.1681,-0.1693,-0.1704,-0.1694,-0.1713,-0.1715,-0.1728,-0.1732,-0.1748,-0.1735,-0.1745,-0.1749,-0.1752,-0.1757,-0.1675,-0.1749,-0.1749,-0.1749,-0.1749,-0.1749,0,-0.1725,-0.1722,-0.1733,-0.1738,-0.1748,-0.1728,-0.1732,-0.1742,-0.1758,-0.176,-0.177,-0.1789,-0.1803,-0.1799,-0.1812,-0.1825,-0.1819,-0.183,-0.183,-0.1831,-0.1767,-0.1759,-0.1835,-0.1835,-0.1835,-0.1835,-0.1835,-0.1835,-0.1769,-0.1794,-0.1786,-0.1812,-0.1808,-0.1825,-0.1829,-0.1833,-0.1834,-0.1855,-0.1866,-0.1862,-0.1862,-0.1874,-0.1887,-0.1885,-0.1892,-0.1906,-0.1902,-0.1843,-0.1835,-0.1827,-0.182,-0.1907,-0.1907,-0.1965,-0.1966,-0.1966]},{"header":{"parameterUnit":"m.s-1","parameterCategory":1,"la1":30.2991,"la2":30.254,"lo1":-89.0895,"lo2":-89.0444,"dy":0.0017,"dx":0.0017,"nx":28,"ny":28,"refTime":"2023-08-30T03:00:00:Z","depth":0,"parameterNumber":3,"parameterNumberName":"V-component_of_WINDS"},"data":[0,0,0,0,0,0,0,0,0,0,0,0,0,0,0,0,0,0,0,0,0,0,0,0,0,0,0,0,0,0,0,0,0,0,0,0,0,0,0,0,0,0,0,0,0,0,0,0,0,0,0,0,0,0,0,0,0,0,-1.6973,-1.6972,0,-1.6863,-1.6862,-1.686,-1.6824,-1.6825,-1.6825,-1.6826,-1.6702,-1.6698,-1.6694,0,0,0,0,0,0,0,0,0,0,0,0,0,-1.714,-1.7137,-1.6973,-1.6972,-1.697,-1.6863,-1.6862,-1.686,-1.6824,-1.6825,-1.6825,-1.6826,-1.6703,-1.6698,-1.6694,0,0,0,0,0,0,0,0,0,0,0,0,0,-1.7052,-1.7136,-1.6973,-1.694,-1.6936,-1.6863,-1.6862,-1.686,-1.6824,-1.6825,-1.6825,-1.6826,-1.6704,-1.6699,-1.6693,-1.6643,0,0,-1.6676,-1.6673,0,0,0,0,0,0,0,0,-1.7057,-1.7046,-1.6946,-1.6942,-1.6937,-1.6858,-1.6875,-1.6787,-1.6824,-1.6866,-1.6826,-1.6826,-1.6752,-1.6743,-1.672,-1.6637,-1.6632,-1.6675,-1.6672,-1.667,-1.6668,0,0,0,0,0,0,0,-1.7063,-1.705,-1.6929,-1.6945,-1.6939,-1.6926,-1.6914,-1.6858,-1.6806,-1.6862,-1.6859,-1.6847,-1.675,-1.6726,-1.6717,-1.663,-1.6676,-1.6671,-1.6667,-1.6665,-1.6496,-1.6495,0,0,0,0,0,0,-1.7076,-1.7056,-1.6933,-1.6926,-1.7001,-1.6922,-1.6909,-1.6883,-1.6806,-1.6796,-1.6847,-1.6846,-1.6735,-1.6724,-1.6712,-1.6646,-1.667,-1.6664,-1.6661,-1.6497,-1.6496,-1.6494,0,0,0,0,0,0,-1.708,-1.7066,-1.6937,-1.699,-1.6973,-1.6919,-1.6889,-1.688,-1.6856,-1.6795,-1.6784,-1.6833,-1.6735,-1.672,-1.666,-1.6642,-1.6662,-1.6657,-1.6498,-1.6496,-1.6495,-1.6516,0,0,0,0,0,0,-1.7085,-1.7068,-1.7051,-1.699,-1.697,-1.6891,-1.6888,-1.6877,-1.6848,-1.6846,-1.6779,-1.6768,-1.6735,-1.6669,-1.6655,-1.6634,-1.6652,-1.65,-1.6497,-1.6495,-1.6516,-1.6515,-1.6514,0,0,0,0,0,-1.7091,-1.706,-1.7051,-1.7036,-1.6949,-1.689,-1.6878,-1.6844,-1.6846,-1.6827,-1.6787,-1.677,-1.6646,-1.6663,-1.6647,-1.6624,-1.6501,-1.6498,-1.6496,-1.6517,-1.6515,-1.6514,0,0,0,0,0,0,-1.7117,-1.7051,-1.704,-1.6989,-1.6946,-1.6884,-1.686,-1.6843,-1.6796,-1.6795,-1.675,-1.6735,-1.6678,-1.6645,-1.6665,-1.6569,-1.6572,-1.6566,-1.6594,-1.6592,-1.659,-1.6599,-1.6647,0,0,0,0,0,-1.7118,-1.7079,-1.7022,-1.6982,-1.6961,-1.6914,-1.6887,-1.6864,-1.6816,-1.6796,-1.6752,-1.6703,-1.6652,-1.662,-1.657,-1.6511,-1.6494,-1.6487,-1.6486,-1.6485,-1.648,-1.6442,-1.6437,-1.6486,-1.6486,-1.6486,0,0,-1.7116,-1.7076,-1.7054,-1.6986,-1.695,-1.6907,-1.6899,-1.6854,-1.6821,-1.6788,-1.673,-1.6695,-1.6637,-1.6576,-1.6547,-1.6547,-1.6462,-1.6482,-1.6482,-1.6477,-1.6439,-1.6435,-1.643,-1.6485,-1.6485,-1.6485,0,0,-1.7093,-1.706,-1.7022,-1.6986,-1.6932,-1.6901,-1.6891,-1.6832,-1.6809,-1.675,-1.6724,-1.668,-1.6596,-1.6554,-1.6522,-1.6479,-1.646,-1.6464,-1.6457,-1.642,-1.6416,-1.6413,-1.6395,-1.6389,-1.6459,-1.6459,-1.6459,0,-1.7098,-1.7037,-1.7003,-1.696,-1.6929,-1.6901,-1.6859,-1.6824,-1.6755,-1.6733,-1.6734,-1.6625,-1.6583,-1.6511,-1.6501,-1.6477,-1.6461,-1.6472,-1.6421,-1.6416,-1.6412,-1.6395,-1.6388,-1.646,-1.646,-1.646,-1.646,0,-1.7043,-1.7001,-1.6975,-1.6913,-1.6879,-1.6837,-1.6793,-1.6761,-1.674,-1.6707,-1.6645,-1.6594,-1.6532,-1.6513,-1.6491,-1.6436,-1.6438,-1.643,-1.6432,-1.6409,-1.6392,-1.6385,-1.6461,-1.6461,-1.6461,-1.646,0,0,-1.7035,-1.6954,-1.6945,-1.6915,-1.6852,-1.6816,-1.677,-1.6713,-1.6685,-1.6638,-1.6595,-1.6523,-1.6515,-1.6478,-1.645,-1.6419,-1.6385,-1.6415,-1.6412,-1.6409,-1.6317,-1.6323,-1.6316,-1.6372,-1.6371,-1.637,-1.6321,0,-1.7002,-1.6924,-1.6891,-1.6825,-1.6783,-1.6754,-1.6713,-1.6667,-1.6634,-1.659,-1.6551,-1.65,-1.6495,-1.6472,-1.644,-1.6396,-1.6365,-1.6399,-1.6328,-1.6326,-1.6343,-1.6307,-1.6313,-1.6271,-1.6315,-1.6314,-1.6313,0,-1.6954,-1.6909,-1.6841,-1.6781,-1.6761,-1.6726,-1.6669,-1.6629,-1.6574,-1.6552,-1.651,-1.6484,-1.6429,-1.6434,-1.6356,-1.638,-1.6348,-1.6322,-1.6319,-1.631,-1.6318,-1.6295,-1.6256,-1.6249,-1.6302,-1.6303,-1.6304,0,-1.6952,-1.6874,-1.6822,-1.6797,-1.6727,-1.6702,-1.667,-1.6617,-1.6584,-1.6532,-1.6509,-1.6451,-1.6418,-1.6371,-1.6328,-1.6337,-1.6252,-1.6255,-1.6228,-1.623,-1.6212,-1.6213,-1.6166,-1.6194,-1.6194,-1.6194,-1.6194,0,-1.6918,-1.6877,-1.682,-1.6788,-1.6739,-1.67,-1.6651,-1.6616,-1.6569,-1.6526,-1.6495,-1.6455,-1.6401,-1.6352,-1.6317,-1.6255,-1.6241,-1.6218,-1.6209,-1.622,-1.6223,-1.6198,-1.6199,-1.6192,-1.6193,-1.6193,-1.6193,0,-1.6908,-1.6869,-1.6811,-1.6748,-1.6731,-1.6698,-1.6642,-1.6607,-1.6572,-1.6518,-1.6503,-1.6446,-1.6387,-1.6339,-1.626,-1.6236,-1.6171,-1.6161,-1.6191,-1.6186,-1.6162,-1.6164,-1.6095,-1.6083,-1.6121,-1.6121,-1.612,0,-1.6889,-1.6857,-1.6792,-1.6763,-1.6733,-1.6686,-1.6652,-1.661,-1.6575,-1.6509,-1.6481,-1.642,-1.6369,-1.6274,-1.6223,-1.6161,-1.6149,-1.6129,-1.6139,-1.6151,-1.6146,-1.6148,-1.6143,-1.6128,-1.6128,-1.6127,-1.6127,0,-1.6859,-1.6841,-1.6796,-1.6742,-1.6703,-1.6658,-1.6612,-1.6589,-1.6537,-1.6499,-1.6439,-1.64,-1.632,-1.6258,-1.6191,-1.6153,-1.613,-1.6125,-1.6115,-1.6126,-1.6143,-1.6131,-1.6186,-1.6126,-1.6126,-1.6126,-1.6126,-1.6127,-1.6842,-1.6811,-1.676,-1.6709,-1.6671,-1.6628,-1.6592,-1.6552,-1.6504,-1.6438,-1.6414,-1.6352,-1.6294,-1.6202,-1.6163,-1.611,-1.6108,-1.6095,-1.6091,-1.6088,-1.6088,-1.6153,-1.6098,-1.6098,-1.6098,-1.6098,-1.6098,0,-1.6808,-1.6774,-1.6728,-1.6666,-1.6624,-1.661,-1.6557,-1.6522,-1.6469,-1.6419,-1.637,-1.6299,-1.6238,-1.6182,-1.6117,-1.6085,-1.6072,-1.6069,-1.607,-1.6061,-1.6095,-1.6109,-1.608,-1.608,-1.608,-1.6081,-1.6081,-1.6081,-1.6786,-1.6732,-1.6707,-1.6632,-1.6596,-1.6538,-1.6509,-1.6467,-1.6426,-1.635,-1.6301,-1.6266,-1.6211,-1.6142,-1.6083,-1.6067,-1.6044,-1.6043,-1.6024,-1.6057,-1.6059,-1.6062,-1.6075,-1.6039,-1.6039,-1.5995,-1.5994,-1.5994]}]]